Weather Roundup
Issued by NWS Springfield, MO

Home | Current Version | Previous Version | Text Only | Print | Product List | Glossary On
Versions: 1 2 3 4 5 6 7 8 9 10 11 12 13 14 15 16 17 18 19 20 21 22 23 24 25 26 27 28 29 30 31 32 33 34 35 36 37 38 39 40 41 42 43 44 45 46 47 48 49 50
000
NZUS99 KSGF 310807
HRRSGF

HOURLY WEATHER
NATIONAL WEATHER SERVICE SPRINGFIELD MO
300 AM CDT THU JUL 31 2014

......SGF CWA......

CITY           SKY/WX    TMP DP  RH WIND       PRES   REMARKS
SPRINGFIELD    CLOUDY    67  64  90 N3        30.09S
JOPLIN         MOCLDY    65  65 100 NE3       30.09S FOG
WEST PLAINS    CLOUDY    66  64  93 CALM      30.10S FOG
ROLLA          CLEAR     57  56  96 SW6       30.07F
OSAGE BEACH    PTCLDY    59  55  88 CALM      30.09S
BRANSON        CLOUDY    66  64  94 CALM      30.10F

......SURROUNDING SGF CWA......

CITY           SKY/WX    TMP DP  RH WIND       PRES   REMARKS
CHANUTE        FOG       63  62  97 CALM      30.10S VSB 1/4
PARSONS        PTCLDY    63  61  93 CALM      30.10S FOG
COFFEYVILLE    CLOUDY    66  65  96 N5        30.08S FOG
EMPORIA        FOG       58  58 100 NW5       30.11S VSB 1/2
GROVE OK       CLOUDY    68  68 100 NE5       30.09R
ROGERS AR      CLOUDY    66  64  93 NE5       30.10S
SILOAM SPRINGS CLOUDY    66  61  82 CALM      30.09S
HARRISON AR    CLOUDY    65  65 100 CALM      30.10S
NEAR YELLVILLE CLOUDY    66  66 100 CALM      30.09S

......KANSAS AND MISSOURI......

CITY           SKY/WX    TMP DP  RH WIND       PRES   REMARKS
KANSAS CTY INT PTCLDY    64  57  78 CALM      30.10S
DOWNTOWN KC    CLEAR     66  61  84 N3        30.09S
COLUMBIA       CLEAR     63  59  87 N7        30.09S
SEDALIA        CLEAR     63  60  90 NW3       30.09S
ST JOSEPH      CLEAR     57  55  93 CALM      30.10F
ST LOUIS       PTCLDY    69  60  73 CALM      30.07F
SPIRIT OF STL  CLEAR     61  59  93 CALM      30.06F
KIRKSVILLE     CLEAR     56  55  97 CALM      30.10S
WICHITA        PTCLDY    61  59  93 NW5       30.12F FOG
TOPEKA         PTCLDY    59  56  89 CALM      30.11S
OLATHE         CLEAR     63  59  87 CALM      30.09S

......TENNESSEE......

CITY           SKY/WX    TMP DP  RH WIND       PRES   REMARKS
MEMPHIS        CLOUDY    72  64  76 E6        30.07S
NASHVILLE      MOCLDY    63  60  90 CALM      30.09F

......ARKANSAS.......

CITY           SKY/WX    TMP DP  RH WIND       PRES   REMARKS
FAYETTEVILLE   CLOUDY    66  66 100 CALM      30.08S
FT SMITH       CLOUDY    69  67  93 E3        30.05R
LITTLE ROCK    LGT RAIN  67  63  87 CALM      30.08S

......OKLAHOMA.......

CITY           SKY/WX    TMP DP  RH WIND       PRES   REMARKS
TULSA          CLOUDY    68  66  93 N7        30.05R
PONCA CITY     CLOUDY    66  65  96 N6        30.08S
MCALESTER      LGT RAIN  68  65  90 E8G16     30.03F
OKLAHOMA CITY  DRIZZLE   69  66  90 NE13      30.05S FOG

......IOWA............

CITY           SKY/WX    TMP DP  RH WIND       PRES   REMARKS
DES MOINES     CLEAR     64  57  78 CALM      30.08F
QUAD CITIES    CLEAR     60  56  86 CALM      30.05F

......ILLINOIS........

CITY           SKY/WX    TMP DP  RH WIND       PRES   REMARKS
QUINCY         CLEAR     62  58  86 CALM      30.07F
CHICAGO        CLEAR     60  55  83 CALM      30.02F



USA.gov is the U.S. government's official web portal to all federal, state and local government web resources and services.